Mojave, CA

2:03 PM PST on November 11, 2019 (GMT -0800)
Mojave

Weather History for KMHV - June, 2019

Change the Weather History Date:

Saturday, June 1, 2019

  Actual Average Record
Temperature  
Mean Temperature 70 °F -  
Max Temperature 82 °F 85 °F 101 °F (1977)
Min Temperature 59 °F 58 °F 38 °F (1967)
Cooling Degree Days 6    
Growing Degree Days 20 (Base 50)    
Moisture  
Dew Point 45 °F    
Average Humidity 44    
Maximum Humidity 72    
Minimum Humidity 14    
Precipitation  
Precipitation 0.00 in - - ()
Sea Level Pressure  
Sea Level Pressure 29.84 in    
Wind  
Wind Speed 7 mph (NW)    
Max Wind Speed 30 mph    
Max Gust Speed 33 mph    
Visibility 10 miles    
Events Thunderstorm    
Averages and records for this station are not official NWS values.
T = Trace of Precipitation, MM = Missing Value Source: NWS Daily Summary

Daily Weather History Graph

Daily Weather History Graph

Search for Another Location

Airport or City:

Astronomy

Jun. 01, 2019 Rise Set
Actual Time 5:39 AM PDT 8:01 PM PDT
Civil Twilight 5:10 AM PDT 8:30 PM PDT
Nautical Twilight 4:34 AM PDT 9:06 PM PDT
Astronomical Twilight 3:55 AM PDT 9:46 PM PDT
Moon 4:40 AM PDT (6/1) 6:25 PM PDT (6/1)
Length of Visible Light 15h 20m
Length of Day
14h 21m
Waning Crescent, 3% of the Moon is Illuminated
Jun 1
Waning Crescent
Jun 3
New
Jun 9
First Quarter
Jun 17
Full
Jun 25
Last Quarter

Hourly Weather History & Observations

Time (PDT) Temp. Dew Point Humidity Pressure Visibility Wind Dir Wind Speed Gust Speed Precip Events Conditions
12:00 AM 68.0 °F 50.0 °F 52% 29.86 in 10.0 mi NW 8.1 mph 17.3 mph N/A   Clear
12:20 AM 66.2 °F 50.0 °F 56% 29.86 in 10.0 mi WNW 10.4 mph - N/A   Clear
12:40 AM 66.2 °F 50.0 °F 56% 29.86 in 10.0 mi Calm Calm - N/A   Clear
1:00 AM 68.0 °F 50.0 °F 52% 29.85 in 10.0 mi Variable 3.5 mph - N/A   Clear
1:20 AM 66.2 °F 50.0 °F 56% 29.85 in 10.0 mi WSW 5.8 mph - N/A   Clear
2:00 AM 64.4 °F 50.0 °F 59% 29.85 in 10.0 mi Variable 3.5 mph - N/A   Clear
2:20 AM 66.2 °F 46.4 °F 49% 29.85 in 10.0 mi NNE 4.6 mph - N/A   Partly Cloudy
2:40 AM 64.4 °F 46.4 °F 52% 29.85 in 10.0 mi NW 8.1 mph - N/A   Partly Cloudy
3:00 AM 64.4 °F 48.2 °F 56% 29.85 in 10.0 mi Calm Calm - N/A   Partly Cloudy
3:20 AM 62.6 °F 50.0 °F 63% 29.84 in 10.0 mi Calm Calm - N/A   Partly Cloudy
3:40 AM 64.4 °F 50.0 °F 59% 29.84 in 10.0 mi Calm Calm - N/A   Clear
4:00 AM 60.8 °F 50.0 °F 68% 29.84 in 10.0 mi NW 3.5 mph - N/A   Clear
4:40 AM 59.0 °F 50.0 °F 72% 29.84 in 10.0 mi NNW 5.8 mph - N/A   Clear
5:00 AM 59.0 °F 50.0 °F 72% 29.83 in 10.0 mi NNW 4.6 mph - N/A   Clear
5:20 AM 59.0 °F 50.0 °F 72% 29.84 in 10.0 mi NNW 5.8 mph - N/A   Clear
5:40 AM 62.6 °F 50.0 °F 63% 29.84 in 10.0 mi NNW 4.6 mph - N/A   Clear
6:00 AM 62.6 °F 50.0 °F 63% 29.84 in 10.0 mi NNW 4.6 mph - N/A   Clear
6:40 AM 64.4 °F 51.8 °F 64% 29.85 in 10.0 mi Calm Calm - N/A   Clear
7:00 AM 66.2 °F 50.0 °F 56% 29.85 in 10.0 mi Calm Calm - N/A   Clear
7:20 AM 68.0 °F 50.0 °F 52% 29.85 in 10.0 mi Calm Calm - N/A   Clear
7:40 AM 68.0 °F 50.0 °F 52% 29.86 in 10.0 mi Calm Calm - N/A   Clear
8:00 AM 69.8 °F 48.2 °F 46% 29.86 in 10.0 mi Calm Calm - N/A   Clear
8:20 AM 69.8 °F 48.2 °F 46% 29.87 in 10.0 mi Calm Calm - N/A   Clear
8:40 AM 71.6 °F 48.2 °F 43% 29.87 in 10.0 mi East 4.6 mph - N/A   Clear
9:20 AM 73.4 °F 42.8 °F 33% 29.87 in 10.0 mi NE 11.5 mph - N/A   Clear
9:40 AM 75.2 °F 41.0 °F 29% 29.87 in 10.0 mi NE 8.1 mph 15.0 mph N/A   Clear
10:00 AM 75.2 °F 41.0 °F 29% 29.87 in 10.0 mi NE 9.2 mph 15.0 mph N/A   Clear
10:20 AM 75.2 °F 41.0 °F 29% 29.87 in 10.0 mi ENE 8.1 mph - N/A   Clear
10:40 AM 77.0 °F 41.0 °F 28% 29.87 in 10.0 mi ENE 11.5 mph - N/A   Clear
11:00 AM 77.0 °F 41.0 °F 28% 29.87 in 10.0 mi NE 10.4 mph - N/A   Clear
11:40 AM 78.8 °F 41.0 °F 26% 29.87 in 10.0 mi ENE 10.4 mph - N/A   Clear
12:00 PM 78.8 °F 41.0 °F 26% 29.86 in 10.0 mi Variable 3.5 mph 15.0 mph N/A   Clear
12:20 PM 78.8 °F 39.2 °F 24% 29.86 in - Calm Calm 11.5 mph N/A   Unknown
12:40 PM 80.6 °F 39.2 °F 23% 29.85 in 10.0 mi NE 8.1 mph 19.6 mph N/A   Unknown
1:00 PM 80.6 °F 37.4 °F 21% 29.84 in 10.0 mi Variable 4.6 mph - N/A   Clear
1:20 PM 80.6 °F 37.4 °F 21% 29.84 in 10.0 mi ESE 8.1 mph - N/A   Scattered Clouds
2:00 PM 82.4 °F 33.8 °F 17% 29.82 in 10.0 mi Variable 3.5 mph 12.7 mph N/A   Clear
2:20 PM 82.4 °F 32.0 °F 16% 29.82 in 10.0 mi ESE 8.1 mph - N/A   Partly Cloudy
2:40 PM 82.4 °F 30.2 °F 15% 29.81 in 10.0 mi SSW 5.8 mph 11.5 mph N/A   Clear
3:00 PM 82.4 °F 32.0 °F 16% 29.80 in 10.0 mi Calm Calm - N/A   Scattered Clouds
3:40 PM 82.4 °F 28.4 °F 14% 29.79 in 10.0 mi NE 5.8 mph - N/A   Clear
4:00 PM 82.4 °F 33.8 °F 17% 29.79 in 10.0 mi SW 11.5 mph 21.9 mph N/A   Partly Cloudy
4:20 PM 78.8 °F 41.0 °F 26% 29.79 in 10.0 mi SW 26.5 mph 33.4 mph N/A   Mostly Cloudy
4:40 PM 77.0 °F 46.4 °F 34% 29.79 in 10.0 mi SW 20.7 mph 33.4 mph N/A   Scattered Clouds
5:00 PM 75.2 °F 50.0 °F 41% 29.80 in 10.0 mi WSW 21.9 mph - N/A Thunderstorm Thunderstorm
5:20 PM 71.6 °F 55.4 °F 57% 29.83 in 10.0 mi NW 29.9 mph - N/A Thunderstorm Overcast
5:40 PM 64.4 °F 50.0 °F 59% 29.82 in 10.0 mi WNW 20.7 mph - N/A Thunderstorm Overcast
6:20 PM 64.4 °F 53.6 °F 68% 29.81 in 10.0 mi WNW 16.1 mph - N/A Thunderstorm Partly Cloudy
6:40 PM 68.0 °F 51.8 °F 56% 29.81 in 10.0 mi West 13.8 mph - N/A   Clear
7:00 PM 68.0 °F 48.2 °F 49% 29.82 in 10.0 mi West 11.5 mph 20.7 mph N/A   Clear
7:20 PM 68.0 °F 46.4 °F 46% 29.82 in 10.0 mi WNW 19.6 mph - N/A   Clear
7:40 PM 66.2 °F 44.6 °F 46% 29.83 in 10.0 mi West 13.8 mph 24.2 mph N/A   Clear
8:00 PM 66.2 °F 42.8 °F 43% 29.83 in 10.0 mi WNW 18.4 mph 25.3 mph N/A   Clear
8:40 PM 68.0 °F 42.8 °F 40% 29.84 in 10.0 mi WNW 18.4 mph 27.6 mph N/A   Overcast
9:00 PM 66.2 °F 44.6 °F 46% 29.84 in 10.0 mi WNW 19.6 mph - N/A   Scattered Clouds
9:20 PM 66.2 °F 46.4 °F 49% 29.85 in 10.0 mi WSW 8.1 mph 15.0 mph N/A   Partly Cloudy
9:40 PM 64.4 °F 46.4 °F 52% 29.86 in 10.0 mi WSW 6.9 mph - N/A   Partly Cloudy
10:20 PM 64.4 °F 48.2 °F 56% 29.86 in 10.0 mi West 4.6 mph - N/A   Mostly Cloudy
10:40 PM 66.2 °F 44.6 °F 46% 29.86 in 10.0 mi WNW 11.5 mph - N/A   Mostly Cloudy
11:00 PM 68.0 °F 42.8 °F 40% 29.86 in 10.0 mi WNW 16.1 mph - N/A   Mostly Cloudy
11:20 PM 68.0 °F 42.8 °F 40% 29.86 in 10.0 mi WNW 12.7 mph - N/A   Mostly Cloudy
11:40 PM 68.0 °F 42.8 °F 40% 29.86 in 10.0 mi NW 13.8 mph - N/A   Scattered Clouds